Location: ????????
(60.4333°N, 46.4710°E)
Time: 19:27:56
(UTC+00:00)

CSL-04 Debris - Pass Details

Date: 25 November 2020
Orbit: 826 x 849 km, 98.9° (Epoch: 16 January)

Event Time Altitude Azimuth Distance (km) Brightness Sun altitude
Exits shadow 15:38:43 14° 168° (SSE) 2,218 6.2 -25.1°
Maximum altitude 15:43:33 75° 253° (WSW) 884 4.3 -25.7°
Drops below altitude 10° 15:49:05 10° 339° (NNW) 2,487 6.9 -26.4°
Sets 15:51:29 0° 342° (NNW) 3,424 7.6 -26.7°
